Temperature
21 21 21 20 20 19 18 18 17 16 15 14 13 12 12 12 11 11 11 11 10 10 10 10 10 9 9 9 9 9 9 9 9 9 9 9 8 8 7 7 7 6 6
21 21 21 20 20 19 19 18 17 16 15 15 14 13 12 12 11 11 11 10 10 10 10 10 10 9 9 9 9 9 9 9 9 9 8 8 8 7 7 7 7 6 6
20 20 20 20 20 19 19 18 17 17 16 15 14 12 12 11 11 11 11 10 10 10 10 10 10 9 9 9 9 9 9 9 8 8 8 8 7 7 7 7 6 6 5
20 20 20 20 19 19 19 18 17 17 16 15 14 13 12 12 11 11 11 10 10 10 10 10 9 9 9 9 9 9 9 8 8 8 8 7 7 6 6 6 6 6 5
19 20 20 19 19 19 18 18 17 16 15 14 14 13 12 12 12 11 11 10 10 10 10 10 9 9 9 9 9 9 9 8 8 8 7 7 6 6 5 5 6 6 5
19 19 19 19 18 18 17 17 16 16 15 14 14 13 13 12 11 11 11 10 10 10 10 9 9 9 9 9 9 9 8 8 8 7 7 7 6 6 5 4 5 5 5
18 18 18 18 18 17 17 16 16 15 15 14 13 13 12 12 11 11 11 10 10 10 10 9 9 9 9 9 9 8 8 8 8 7 7 6 6 5 5 4 4 3 4
18 18 18 18 17 17 16 16 15 15 14 14 13 13 12 11 11 11 11 10 10 10 10 9 9 9 9 9 9 8 8 8 7 7 7 6 6 5 4 4 3 2 2
18 18 17 17 17 16 16 15 15 14 14 13 13 12 12 11 11 10 10 10 10 10 9 9 9 9 9 9 8 8 8 7 7 7 6 6 5 5 4 3 2 1 1
17 17 17 17 16 16 15 15 14 14 14 13 13 12 12 11 11 10 10 10 10 10 9 9 9 9 9 8 8 8 7 7 7 6 6 5 5 4 4 3 2 2 1
18 17 17 16 16 15 15 15 14 14 13 13 12 12 11 11 10 10 10 10 10 9 9 9 9 9 8 8 8 7 7 7 6 6 5 5 4 4 3 3 2 2 1
18 17 17 16 16 15 15 14 14 14 13 13 12 12 11 10 10 10 9 9 9 9 9 9 8 8 8 8 7 7 7 6 6 5 5 5 4 3 3 2 2 1 0
17 17 16 16 16 15 15 14 14 13 13 12 12 11 11 10 10 9 9 9 9 9 9 8 8 8 8 7 7 6 6 6 5 5 4 4 3 3 2 2 1 1 -0
17 17 17 16 16 15 15 14 14 13 13 12 12 11 11 10 10 9 9 9 9 9 8 8 8 7 7 7 6 6 6 5 5 4 4 3 3 2 2 1 0 -0 -1
17 17 17 16 16 15 15 14 14 13 12 12 12 11 11 10 9 9 9 8 8 8 8 8 7 7 7 6 6 5 5 5 4 4 3 2 2 1 1 0 -0 -1 -2
17 17 17 16 16 15 15 14 13 13 12 12 11 11 10 9 9 9 8 8 8 8 7 7 7 6 6 6 5 5 4 4 3 3 2 2 1 1 0 -1 -1 -2 -2
17 17 17 16 16 16 15 14 14 13 12 11 11 10 10 9 9 8 8 8 7 7 7 7 6 6 6 5 4 4 4 3 2 2 1 1 1 0 -0 -1 -1 -2 -2
17 17 17 16 16 15 14 14 13 12 11 11 10 10 9 9 8 8 7 7 7 7 6 6 6 5 5 4 4 3 3 2 2 1 1 0 -0 -1 -1 -2 -2 -2 -3
18 17 17 16 16 15 14 13 12 12 11 11 10 9 9 8 8 7 7 7 6 6 6 5 5 4 4 4 3 2 2 1 1 1 -0 -1 -1 -1 -2 -3 -3 -3 -4
17 17 16 15 15 14 14 13 12 12 11 10 10 9 8 8 7 7 6 6 6 5 5 4 4 4 3 3 2 2 1 1 0 -0 -1 -1 -2 -2 -3 -4 -4 -4 -5
16 16 15 15 14 14 13 13 12 11 11 10 9 8 8 7 7 6 6 5 5 4 4 4 3 3 2 2 1 1 0 -0 -1 -1 -2 -2 -3 -3 -4 -4 -5 -5 -5
15 15 15 14 14 13 13 12 11 11 10 9 9 8 7 7 6 5 5 4 4 4 3 3 3 2 2 1 1 -0 -1 -1 -2 -2 -3 -3 -4 -4 -5 -5 -6 -6 -6
15 14 14 13 13 12 12 11 11 10 9 9 8 7 7 6 5 5 4 4 3 3 2 2 2 1 1 0 -0 -1 -1 -2 -3 -3 -4 -4 -5 -6 -6 -6 -7 -7 -7
14 13 13 12 12 11 11 10 10 9 9 8 7 7 6 5 4 4 3 3 3 2 2 1 1 1 0 -0 -1 -2 -2 -3 -4 -4 -5 -5 -6 -6 -7 -7 -7 -8 -8
13 12 12 12 11 11 10 9 9 9 8 7 6 6 5 4 4 3 3 2 2 2 1 1 -0 -1 -1 -2 -2 -3 -4 -4 -5 -5 -6 -6 -7 -7 -8 -8 -8 -9 -9
12 12 11 11 11 10 9 9 8 8 7 6 6 5 4 4 3 3 2 2 1 1 0 -0 -1 -2 -2 -3 -3 -4 -5 -5 -6 -6 -7 -7 -8 -8 -9 -9 -9 -9 -9
Wind_Speed
13 11 11 12 13 14 16 19 18 17 15 13 12 11 10 9 8 9 15 16 16 15 13 7 7 6 4 5 4 3 2 1 1 2 4 4 4 3 2 2 2 3 3
9 8 9 10 13 16 17 18 19 18 18 15 12 9 8 6 7 7 11 16 16 15 13 9 6 6 5 5 4 3 3 1 2 2 2 3 4 3 3 3 2 2 4
12 9 9 10 11 14 17 18 18 17 16 13 9 7 5 4 5 7 8 10 15 15 14 12 9 7 6 6 5 5 5 3 0 1 3 2 3 3 4 3 2 2 2
9 8 9 10 11 12 13 14 15 15 14 14 14 14 10 8 8 7 7 8 13 14 14 13 11 8 6 6 6 5 4 5 3 1 1 2 3 2 3 4 3 3 3
9 9 10 10 9 9 10 11 13 13 13 15 16 15 10 7 5 6 8 8 8 11 13 13 11 8 6 7 7 5 5 4 4 3 2 1 1 2 3 4 5 4 4
7 7 6 6 6 7 8 10 12 12 13 15 15 15 13 11 10 9 10 8 6 6 9 11 10 9 7 7 7 6 7 5 4 4 4 4 3 3 4 5 5 5 4
8 7 8 8 8 8 9 10 12 12 13 14 14 14 14 14 14 12 11 9 7 6 9 8 8 7 8 8 7 6 6 6 5 5 4 4 4 3 4 3 4 4 4
8 9 9 9 9 10 10 10 12 11 12 13 13 12 12 11 10 11 10 11 9 8 9 9 8 9 9 9 7 5 5 5 6 6 5 4 4 4 4 4 3 3 4
9 9 8 9 9 10 10 11 11 10 11 12 11 11 12 11 10 10 9 8 8 7 9 9 9 8 9 8 7 5 6 5 5 6 5 4 4 4 4 4 4 4 4
8 8 8 9 8 9 8 8 9 10 10 10 10 9 10 10 10 9 10 9 9 9 10 10 9 9 8 7 7 5 5 6 5 4 5 5 4 4 4 4 4 5 5
10 9 8 8 8 7 8 8 8 8 8 9 9 9 9 9 9 9 10 10 9 10 11 10 9 9 8 8 7 7 6 7 6 5 6 6 5 4 4 4 4 5 5
9 8 8 7 7 8 8 9 9 9 9 9 9 9 8 8 9 9 9 9 10 10 10 10 9 9 8 8 8 8 7 7 7 7 6 7 5 5 5 4 5 6 6
8 7 7 8 9 9 9 9 9 9 8 8 9 8 8 9 9 9 9 9 9 9 9 9 10 9 8 8 8 8 7 7 7 7 7 7 6 6 6 6 6 6 6
9 9 8 8 9 9 9 9 8 8 9 9 9 9 9 9 9 8 8 8 9 9 9 9 9 8 7 7 7 7 7 7 7 7 7 7 7 8 7 6 7 7 7
9 10 10 9 8 9 9 9 8 8 9 9 9 9 8 7 7 7 7 7 8 8 8 7 7 6 6 7 7 7 7 7 7 6 6 7 9 11 9 7 6 6 6
11 11 11 10 10 10 10 9 9 9 9 9 9 7 7 7 7 7 7 7 7 6 6 7 7 6 6 9 11 8 6 6 7 7 7 7 8 11 14 16 15 12 8
12 12 12 12 11 11 11 11 10 9 9 9 8 8 8 8 7 7 7 7 7 6 6 6 6 6 6 8 9 10 5 6 6 7 7 6 7 10 7 12 16 15 17
12 12 11 10 9 8 8 8 8 9 9 8 8 8 8 8 7 7 7 6 5 5 5 5 5 5 5 7 8 8 5 5 6 7 7 8 8 8 9 8 8 9 9
12 11 10 9 9 9 10 10 9 9 9 9 8 8 8 8 7 7 6 4 4 4 4 4 4 4 4 6 6 6 3 4 6 6 7 7 8 14 16 10 8 8 8
9 9 8 8 9 9 10 11 10 9 9 9 8 8 8 8 8 7 5 4 4 4 4 3 3 4 3 5 6 6 2 4 5 5 6 10 11 14 16 8 7 9 9
9 10 10 9 9 10 11 11 9 9 8 8 8 7 7 7 7 6 4 5 4 4 3 2 1 2 3 4 6 7 3 4 5 5 5 6 13 15 16 14 7 11 11
9 10 10 9 8 10 12 11 9 7 8 9 8 7 7 6 6 6 5 5 5 4 2 1 1 1 2 3 5 8 8 7 4 5 5 6 13 15 15 12 13 17 14
11 9 11 10 8 8 10 11 8 9 10 9 8 7 7 6 6 6 6 4 4 3 2 1 2 3 2 3 7 9 10 11 6 5 10 12 14 13 10 13 16 13 6
10 10 12 12 9 7 8 9 10 10 10 10 8 7 7 6 5 4 4 4 3 3 2 2 2 3 3 3 4 4 5 8 7 6 8 12 12 10 10 10 8 5 5
9 10 12 12 10 9 9 9 10 11 10 9 8 7 6 6 5 4 3 3 3 3 3 3 2 2 4 5 8 6 4 4 5 5 3 3 3 4 4 4 5 4 4
11 11 11 11 10 10 10 9 9 11 11 9 7 6 5 5 4 4 3 3 2 1 1 1 2 3 6 9 9 10 10 11 10 6 3 4 4 5 5 6 5 4 5
Wind_Direction
240 228 210 199 192 187 186 185 183 180 176 178 179 180 185 185 185 185 186 185 182 180 175 172 168 164 162 167 159 138 117 63 41 42 359 349 4 29 35 40 57 55 53
247 230 206 188 187 186 185 184 183 181 182 185 183 181 172 176 182 180 185 186 182 179 179 170 168 166 159 159 159 144 133 100 77 108 70 359 343 346 2 0 18 20 25
226 219 199 192 185 186 185 185 185 182 182 173 161 144 135 136 167 185 188 188 184 181 178 175 169 168 165 171 173 161 152 159 124 119 140 145 241 299 321 334 349 345 346
214 206 196 190 188 190 184 181 180 178 176 169 172 172 178 182 186 180 182 181 182 180 180 177 173 170 168 171 175 167 158 150 166 158 136 163 165 181 301 314 315 319 305
204 199 196 190 183 177 175 176 174 175 174 175 177 180 182 177 158 161 171 178 180 180 179 177 173 171 173 175 170 162 162 161 166 172 167 149 131 164 190 273 301 309 281
195 189 180 164 161 162 165 167 170 175 175 177 178 182 178 168 164 172 180 181 179 181 181 177 176 175 174 176 175 171 169 171 169 174 173 172 178 194 191 231 268 287 285
181 176 170 168 166 165 167 168 170 175 177 178 181 184 180 177 180 180 184 181 182 189 190 179 179 177 179 177 171 171 176 176 179 187 193 193 199 185 183 206 252 273 290
187 186 186 179 175 173 170 170 174 175 177 181 183 181 179 182 186 184 184 188 193 193 184 180 181 179 177 176 173 173 183 181 190 197 197 202 211 195 190 193 211 278 290
195 193 189 183 180 179 179 177 176 176 180 181 179 180 181 181 183 183 183 188 188 183 179 179 179 181 179 177 172 184 190 185 196 202 205 210 218 210 209 201 192 204 266
198 195 191 189 187 183 179 177 177 180 180 179 181 183 183 183 179 180 186 187 185 179 177 181 182 181 182 180 178 186 190 191 203 202 206 220 224 222 216 214 213 206 219
198 197 195 191 184 178 176 179 181 177 178 180 180 179 181 180 178 185 190 188 184 180 182 184 183 183 185 183 184 194 192 200 211 211 213 227 225 228 231 226 225 225 216
194 191 187 181 181 183 183 184 184 183 182 179 177 179 178 176 181 188 188 183 183 183 183 180 182 186 188 187 191 199 200 205 214 220 221 235 234 237 239 235 238 240 229
188 184 183 186 189 190 187 187 188 187 180 173 173 175 177 179 185 187 182 180 180 179 179 179 185 190 190 192 198 200 205 211 218 220 223 234 232 245 247 244 248 250 253
186 185 191 196 194 191 189 187 189 183 175 171 173 180 184 184 182 178 176 178 176 177 181 186 189 190 190 195 199 201 209 218 225 225 226 231 230 240 247 251 250 252 258
196 195 195 197 194 191 190 186 184 179 173 171 177 184 179 171 167 168 171 171 174 179 179 180 186 188 190 200 200 203 210 218 229 236 237 239 245 252 258 261 255 250 254
205 201 196 192 193 191 188 183 181 177 169 173 178 170 162 161 166 168 165 165 169 169 170 181 187 194 204 214 215 212 210 215 225 240 247 252 259 267 275 279 281 278 271
203 197 196 196 194 191 183 181 176 164 164 169 167 163 162 164 167 163 161 168 171 169 176 184 188 204 218 222 228 227 213 217 227 236 246 260 263 275 267 278 285 286 285
199 197 193 190 187 178 170 162 152 155 159 161 162 161 162 164 161 159 166 167 164 172 179 186 193 206 228 233 239 239 226 228 236 240 243 251 261 266 272 264 268 266 270
193 191 186 179 169 164 158 147 148 152 156 162 164 163 160 158 157 162 165 160 158 168 177 183 189 204 238 245 250 253 227 243 254 256 253 256 259 275 285 282 274 276 275
175 168 159 151 153 157 148 146 152 156 166 167 161 155 154 156 161 163 157 149 156 165 164 176 190 203 234 258 264 264 234 253 264 267 266 274 280 286 292 286 278 281 281
160 152 146 150 156 149 144 147 152 165 160 142 137 139 145 149 149 143 139 138 135 134 145 171 210 224 249 272 279 281 267 252 261 267 268 269 288 294 297 299 287 287 296
145 143 140 139 139 143 143 145 154 147 130 128 129 131 132 132 131 129 126 128 130 132 140 154 281 282 283 289 289 292 293 293 271 268 265 272 294 299 301 302 300 303 311
146 140 137 132 132 142 144 146 146 135 128 125 126 124 119 114 123 130 129 123 124 135 154 178 250 279 287 294 302 302 302 302 295 279 292 298 303 306 305 303 307 312 311
143 139 137 138 140 138 133 136 137 133 128 128 126 124 121 114 110 114 128 134 145 152 174 214 248 270 284 283 282 281 292 298 298 296 300 307 310 312 309 309 310 302 286
143 144 146 146 144 137 130 131 134 130 126 125 124 121 119 122 116 110 125 142 173 178 186 214 222 247 272 281 297 301 288 287 285 305 304 305 307 305 301 298 294 289 290
145 142 141 140 139 136 132 133 134 133 132 131 130 128 125 121 120 116 78 53 66 61 22 333 300 285 296 309 314 315 317 319 320 326 314 305 303 301 301 301 299 292 290
Height
1475 1477 1479 1482 1484 1487 1490 1493 1496 1500 1504 1508 1511 1514 1517 1521 1524 1527 1530 1532 1534 1536 1537 1539 1540 1541 1541 1542 1542 1542 1541 1541 1540 1540 1539 1538 1537 1536 1535 1535 1534 1533 1532
1468 1470 1472 1475 1477 1480 1483 1487 1491 1495 1498 1502 1506 1510 1514 1517 1521 1524 1526 1529 1531 1533 1534 1536 1537 1538 1539 1539 1540 1540 1539 1539 1538 1538 1537 1536 1536 1534 1534 1533 1532 1531 1530
1461 1463 1465 1468 1471 1474 1478 1481 1485 1489 1494 1498 1502 1507 1511 1515 1517 1519 1522 1525 1527 1530 1531 1533 1534 1535 1536 1537 1537 1537 1537 1537 1536 1536 1536 1534 1533 1532 1531 1530 1529 1528 1527
1456 1458 1460 1462 1465 1469 1473 1477 1481 1485 1489 1493 1497 1500 1503 1506 1509 1514 1518 1521 1524 1526 1528 1530 1531 1532 1533 1534 1534 1534 1534 1534 1534 1533 1533 1532 1531 1530 1528 1527 1526 1525 1524
1451 1453 1455 1458 1461 1465 1469 1473 1477 1481 1485 1488 1492 1496 1499 1503 1507 1511 1514 1517 1520 1522 1524 1526 1528 1529 1530 1531 1531 1531 1532 1531 1531 1530 1530 1529 1528 1527 1526 1523 1522 1521 1520
1447 1449 1452 1455 1458 1461 1465 1469 1472 1476 1480 1484 1487 1491 1495 1499 1502 1506 1510 1513 1516 1518 1520 1522 1524 1525 1526 1527 1528 1528 1528 1528 1528 1527 1526 1526 1525 1523 1522 1520 1517 1516 1514
1444 1446 1449 1452 1455 1458 1461 1464 1468 1471 1475 1479 1483 1487 1491 1494 1498 1502 1505 1508 1511 1513 1516 1518 1520 1521 1523 1524 1525 1525 1525 1525 1524 1524 1523 1522 1521 1520 1518 1516 1513 1511 1509
1442 1444 1446 1449 1452 1454 1457 1461 1464 1467 1471 1475 1479 1483 1487 1490 1494 1497 1501 1504 1507 1509 1512 1514 1516 1518 1519 1520 1521 1521 1521 1521 1521 1520 1519 1518 1517 1516 1514 1513 1510 1506 1503
1440 1442 1444 1446 1449 1451 1454 1457 1460 1464 1467 1471 1475 1479 1483 1486 1490 1493 1497 1500 1503 1506 1508 1510 1512 1514 1515 1516 1517 1517 1517 1517 1517 1516 1515 1514 1513 1512 1510 1508 1506 1504 1498
1438 1440 1442 1444 1447 1449 1452 1455 1457 1460 1464 1467 1471 1475 1479 1482 1486 1489 1492 1495 1499 1501 1503 1506 1508 1509 1510 1511 1512 1512 1513 1513 1512 1511 1510 1509 1508 1507 1505 1503 1501 1499 1495
1435 1437 1440 1442 1445 1447 1449 1452 1454 1457 1461 1464 1468 1471 1475 1479 1482 1485 1488 1491 1494 1497 1499 1501 1503 1504 1506 1507 1507 1508 1508 1508 1507 1507 1506 1504 1503 1502 1500 1498 1496 1493 1490
1433 1436 1438 1440 1442 1444 1446 1449 1451 1454 1457 1461 1464 1468 1471 1474 1477 1480 1484 1487 1490 1492 1495 1497 1498 1500 1501 1502 1503 1503 1503 1503 1502 1502 1500 1499 1498 1496 1494 1492 1490 1487 1484
1431 1433 1435 1437 1439 1441 1444 1446 1448 1451 1454 1458 1461 1464 1467 1470 1473 1476 1480 1483 1485 1488 1490 1492 1494 1495 1496 1497 1498 1498 1498 1498 1497 1496 1495 1494 1492 1490 1488 1486 1483 1481 1478
1428 1430 1432 1435 1437 1439 1441 1443 1446 1449 1451 1454 1457 1460 1463 1466 1469 1473 1476 1478 1481 1483 1486 1488 1489 1491 1492 1493 1493 1493 1493 1492 1492 1491 1490 1488 1486 1484 1482 1479 1477 1474 1471
1425 1427 1429 1431 1433 1436 1438 1440 1443 1446 1448 1451 1454 1457 1460 1463 1466 1469 1472 1475 1477 1479 1482 1483 1485 1486 1487 1488 1488 1488 1488 1487 1486 1485 1484 1482 1481 1478 1476 1473 1470 1467 1464
1420 1423 1426 1428 1430 1432 1434 1437 1440 1442 1445 1448 1451 1454 1457 1460 1463 1466 1468 1471 1473 1475 1477 1479 1480 1481 1482 1483 1483 1483 1482 1481 1480 1479 1478 1476 1474 1472 1469 1467 1464 1462 1458
1416 1419 1421 1424 1426 1429 1431 1434 1437 1440 1442 1445 1448 1451 1454 1457 1459 1462 1465 1467 1469 1471 1473 1475 1476 1477 1478 1478 1478 1478 1477 1476 1475 1473 1471 1469 1468 1465 1462 1459 1457 1455 1452
1412 1415 1418 1420 1423 1426 1429 1432 1434 1437 1440 1442 1445 1448 1451 1454 1456 1459 1461 1463 1465 1467 1469 1470 1471 1472 1473 1473 1473 1472 1471 1470 1469 1467 1465 1463 1460 1458 1455 1452 1448 1446 1444
1407 1410 1413 1417 1420 1422 1425 1428 1431 1434 1437 1440 1442 1445 1448 1451 1453 1455 1458 1460 1462 1463 1465 1466 1467 1468 1468 1469 1468 1467 1465 1464 1462 1461 1459 1456 1453 1451 1448 1445 1441 1438 1436
1402 1406 1410 1413 1416 1419 1422 1425 1428 1431 1434 1437 1440 1443 1445 1448 1450 1452 1454 1456 1458 1459 1461 1462 1463 1463 1464 1464 1463 1462 1460 1458 1456 1454 1452 1450 1447 1444 1442 1439 1435 1431 1428
1398 1402 1406 1409 1413 1416 1419 1422 1425 1428 1432 1435 1438 1440 1443 1445 1447 1449 1451 1453 1454 1456 1457 1458 1459 1459 1459 1458 1457 1456 1454 1451 1449 1446 1444 1442 1440 1437 1435 1432 1429 1425 1422
1394 1398 1402 1406 1410 1413 1417 1420 1423 1427 1430 1433 1435 1438 1440 1442 1444 1446 1448 1449 1451 1452 1453 1454 1454 1454 1454 1453 1451 1450 1448 1446 1443 1440 1437 1435 1433 1430 1427 1425 1422 1420 1416
1390 1394 1399 1403 1407 1411 1415 1418 1422 1425 1428 1431 1433 1436 1438 1440 1442 1444 1445 1446 1447 1448 1449 1449 1449 1449 1449 1448 1446 1444 1442 1439 1436 1433 1431 1428 1426 1423 1420 1418 1416 1413 1409
1387 1391 1396 1400 1405 1409 1413 1417 1420 1423 1426 1429 1431 1434 1436 1438 1440 1441 1442 1443 1444 1444 1445 1445 1444 1444 1443 1441 1440 1437 1435 1432 1430 1427 1424 1421 1419 1416 1413 1411 1409 1406 1403
1384 1389 1394 1398 1403 1407 1411 1415 1419 1422 1424 1427 1429 1432 1434 1435 1437 1439 1440 1440 1441 1441 1441 1441 1440 1438 1437 1436 1434 1432 1429 1426 1423 1420 1417 1415 1412 1409 1407 1405 1402 1400 1398
1382 1387 1392 1397 1402 1406 1410 1414 1417 1420 1423 1425 1427 1429 1431 1433 1435 1436 1437 1437 1438 1438 1437 1436 1435 1433 1432 1430 1428 1425 1423 1420 1417 1414 1411 1409 1406 1404 1401 1399 1396 1395 1393